Regional Weather Roundup
Issued by NWS

Home | Current Version | Previous Version | Text Only | Print | Product List | Glossary Off
Versions: 1 2 3 4 5 6 7 8 9 10 11 12 13 14 15 16 17 18 19 20 21 22 23 24 25 26 27 28 29 30 31 32 33 34 35 36 37 38 39 40 41 42 43 44 45 46 47 48 49 50

700
ASUS45 KSLC 201210
RWRUT

UTAH REGIONAL WEATHER ROUNDUP
NATIONAL WEATHER SERVICE SALT LAKE CITY UT
600 AM MDT THU JUL 20 2017

UTZ001>011-023>025-201300-

NORTHERN UTAH

CITY           SKY/WX    TMP DP  RH WIND       PRES   REMARKS
BRIGHAM CITY   MOCLDY    71  56  59 CALM      30.07R
HILL AFB       PTCLDY    72  52  48 E10       30.10R
LOGAN          MOCLDY    65  55  70 N3        30.07S
OGDEN          PTCLDY    74  52  46 SE9       30.07R
SALT LAKE CITY MOCLDY    78  57  48 SE14      30.06R
TOOELE VALLEY  PTCLDY    77  54  44 E10       30.06S
WENDOVER       PTCLDY    75  56  51 NE9       30.02R
HEBER CITY     MOCLDY    61  54  77 CALM      30.20S
WEST JORDAN    PTCLDY    71  61  70 S7        30.10R

$$

UTZ011>015-024>027-201300-

CENTRAL/NORTHEAST UTAH

CITY           SKY/WX    TMP DP  RH WIND       PRES   REMARKS
PROVO AIRPORT  MOCLDY    67  56  67 E8        30.11S
MOAB/CANYONLAN PTCLDY    71  60  68 NE8       30.12F
DELTA          PTCLDY    72  54  53 SE9       30.12R
PRICE          PTCLDY    66  51  58 E5        30.23S
ROOSEVELT      PTCLDY    63  55  77 CALM      30.24S
VERNAL         PTCLDY    63  60  90 NW5       30.23R

$$

UTZ013>016-019>022-027-201300-

SOUTHERN UTAH

CITY           SKY/WX    TMP DP  RH WIND       PRES   REMARKS
BRYCE CANYON   PTCLDY    50  48  93 NW3       30.38S
CEDAR CITY     MOCLDY    68  60  75 S7        30.21S
MILFORD        PTCLDY    66  57  72 SW12      30.16R
ST GEORGE      PTSUNNY   79  62  56 SE8       30.05R
HANKSVILLE     CLEAR     64  48  55 CALM      30.15S
BLANDING       CLOUDY    68  51  55 S9G17     30.30R

$$

REGIONAL REPORTS     COLORADO/ARIZONA

CITY           SKY/WX    TMP DP  RH WIND       PRES   REMARKS
CRAIG, CO      CLOUDY    54  50  86 CALM      30.28R
GRAND JUNCTION CLOUDY    67  60  78 CALM      30.19R
RIFLE, CO      CLOUDY    66  57  72 S3        30.24S
MONTROSE, CO   CLOUDY    61  57  87 SE7       30.27R
CORTEZ, CO     CLEAR     59  55  87 NE9       30.28S
COLORADO CITY    N/A     64  63  94 SE7       30.23R
PAGE, AZ       MOCLDY    73  58  59 CALM      30.14R
GRAND CANYON   PTCLDY    54  53  97 NE3       30.33R
KINGMAN, AZ    PTCLDY    72  65  78 SE14      30.10R
FLAGSTAFF, AZ  CLOUDY    55  53  93 CALM      30.36S

$$

REGIONAL REPORTS    NEVADA/IDAHO/WYOMING

CITY           SKY/WX    TMP DP  RH WIND       PRES   REMARKS
LAS VEGAS, NV  CLOUDY    84  68  58 CALM      29.97R
ELY, NY        CLEAR     62  51  67 CALM      30.22R
ELKO, NV       CLEAR     56  30  37 CALM      30.11R
POCATELLO, ID  PTCLDY    62  54  74 CALM      30.04S
BURLEY, ID     MOCLDY    60  51  72 S3        30.01R
FORT BRIDGER,    N/A     58  47  66 SW5       30.32R
EVANSTON, WY   CLOUDY    61  49  64 S6        30.30R
ROCK SPRINGS,  CLOUDY    60  49  66 SE5       30.28R
KEMMERER, WY     N/A     54  46  76 N8        30.31R

$$




USA.gov is the U.S. government's official web portal to all federal, state and local government web resources and services.